{"data":{"norad_id":58139,"epoch":"2026-09-20T07:06:03.836736Z","epoch_age_seconds":158123,"freshness":"FRESH","line1":"1 58139U 23162X   26263.29587774  .00000304  00000+0  20588-4 0  9991","line2":"2 58139  43.0022 113.1056 0001078 270.3556  89.7172 15.27576058162076","mean_motion":15.27576058,"eccentricity":0.0001078,"inclination_deg":43.0022,"raan_deg":113.1056,"arg_perigee_deg":270.3556,"mean_anomaly_deg":89.7172,"bstar":2.0588e-5,"rev_number":16207,"period_min":94.26699197455,"perigee_km":482.32126269756,"apogee_km":483.80053696477,"semimajor_km":6861.1978998312,"source":"CELESTRAK","updated_at":"2026-09-21T09:00:33.794930Z"}}